RH
46 44 47 48 33 29 27 24 23 32 45 47 42 30 21 17 18 22 29 35 48 44 37 55 63 62 63 54 51 62 66 61 55 54 59 64 77 77 70 79 83 76 62
43 44 46 40 33 34 31 26 18 20 27 28 25 21 16 16 17 18 20 28 31 32 39 53 48 49 53 56 61 72 69 54 56 55 63 86 76 69 75 74 69 65 63
42 43 45 34 39 38 36 28 17 19 22 23 20 16 16 17 21 22 21 22 27 37 41 46 48 45 50 62 68 62 55 53 63 69 76 88 96 96 77 73 66 61 61
41 41 43 37 43 44 43 30 16 20 20 20 16 15 17 21 27 27 22 23 33 38 43 44 44 46 49 53 55 55 56 58 64 66 85 98 95 98 87 71 66 65 60
42 40 40 37 44 48 47 35 17 18 22 18 16 17 20 31 33 28 23 25 34 40 45 47 46 49 51 50 52 54 56 56 57 62 61 71 79 85 72 68 68 67 64
45 42 40 36 41 49 52 40 20 18 20 19 17 19 26 32 33 23 24 26 34 48 52 52 48 46 44 43 48 54 56 62 51 47 57 63 63 66 64 68 67 68 68
47 46 44 40 40 46 54 48 27 18 19 20 18 20 25 33 33 21 24 31 42 48 51 54 56 49 43 33 34 35 40 43 40 37 48 51 55 59 59 62 66 69 68
50 50 49 49 48 47 51 52 36 17 20 19 20 20 24 33 34 20 26 38 46 53 54 54 57 54 42 23 21 24 28 29 31 28 35 40 44 47 49 51 56 59 59
52 54 55 55 56 54 53 54 45 22 20 19 19 20 24 34 35 22 24 36 46 56 55 60 60 57 34 32 29 25 21 21 21 20 25 29 35 36 38 40 42 38 38
56 56 58 59 60 61 59 55 50 35 18 21 20 20 25 34 36 25 22 30 42 54 58 59 60 60 56 62 60 51 40 23 20 18 19 20 22 24 24 28 31 33 34
60 60 59 62 63 64 65 59 56 50 26 21 23 22 22 30 42 31 26 28 41 53 56 54 58 62 60 65 69 66 57 42 22 20 21 23 26 29 33 38 42 44 47
64 64 65 65 65 66 68 68 59 57 44 21 22 24 21 27 36 43 34 31 42 54 63 63 57 61 65 69 72 69 68 61 38 24 32 39 43 47 49 51 53 56 54
60 66 68 67 68 70 69 71 69 59 56 34 21 22 24 23 30 40 41 38 43 56 60 65 67 64 65 68 72 69 71 70 55 39 40 50 53 53 55 57 61 57 48
63 54 64 70 71 65 68 71 72 67 59 53 26 21 25 23 25 31 35 36 38 47 55 62 64 71 72 69 72 69 72 73 67 60 51 52 55 57 57 59 59 50 34
63 56 43 55 73 74 70 70 71 68 63 55 43 22 20 24 21 25 28 31 32 36 46 52 58 69 75 80 74 67 66 72 68 61 62 54 58 61 60 58 56 43 31
52 64 62 50 52 64 73 68 69 67 64 58 51 31 19 20 23 21 23 26 29 33 39 46 52 64 74 79 70 70 66 67 66 67 63 60 60 63 63 61 55 36 33
19 90 69 57 60 60 61 67 68 65 60 55 50 46 26 18 19 23 23 24 25 29 35 39 44 64 75 76 62 67 68 67 68 66 65 65 63 64 65 64 60 36 45
14 18 21 48 69 66 66 62 63 66 61 56 52 47 43 24 18 19 23 23 25 27 29 32 36 48 69 72 60 60 68 68 66 63 64 64 65 66 65 65 65 64 53
16 15 17 46 64 74 72 69 64 61 62 60 59 50 41 39 23 18 18 21 24 27 27 28 28 30 40 64 57 55 67 68 68 66 65 65 65 66 68 68 65 66 70
21 28 48 69 98 92 94 87 78 78 69 64 63 58 47 37 35 23 18 17 22 25 26 28 27 26 26 37 54 56 66 71 72 70 72 68 64 65 69 69 66 63 67
27 24 48 99 100 100 100 100 99 90 70 70 69 68 66 54 40 36 23 20 19 20 23 25 26 28 26 34 53 60 66 70 76 74 72 72 66 66 68 69 71 68 68
35 38 38 60 94 98 100 100 100 91 81 69 70 74 70 69 54 39 29 20 19 18 19 24 26 28 27 33 53 59 66 64 73 78 78 69 69 68 68 69 70 71 72
42 39 44 47 53 66 78 98 99 100 99 97 84 68 60 60 62 55 44 33 21 19 19 19 26 29 28 28 38 55 72 71 71 74 74 71 68 67 70 70 69 72 73
54 62 63 56 61 54 55 74 91 99 100 98 85 72 63 57 66 74 67 56 37 23 20 23 23 33 28 27 35 54 61 68 72 72 68 69 67 67 68 69 69 72 74
66 58 66 71 68 66 66 97 99 98 100 100 96 87 93 78 70 61 67 71 61 38 26 25 30 35 31 26 31 50 54 75 77 70 60 54 64 61 65 69 69 69 72
62 61 59 58 65 65 65 70 90 89 96 100 97 99 91 90 86 80 73 69 73 62 39 26 29 41 45 37 38 46 51 59 73 76 74 66 54 50 55 61 65 66 68
Wind_Speed
29 27 26 25 22 21 19 20 21 21 23 21 18 18 18 19 20 18 17 17 17 17 18 20 21 21 20 21 20 21 20 20 21 22 21 22 22 22 22 21 21 22 22
32 29 27 25 23 20 17 17 18 19 20 20 19 19 19 20 19 18 18 18 18 19 20 21 21 22 22 22 21 20 20 21 21 21 23 22 21 21 21 20 21 22 22
32 30 29 26 23 19 17 17 18 20 20 20 20 20 20 20 20 19 19 19 20 21 22 21 21 21 21 21 20 20 19 20 21 21 20 22 21 21 20 19 19 20 21
33 32 29 27 23 20 17 17 18 20 21 21 20 21 21 21 20 20 20 20 21 22 22 22 22 21 20 19 19 19 19 19 20 19 21 20 20 19 19 18 18 18 19
33 31 30 28 23 20 17 16 18 20 20 20 21 21 21 21 20 20 20 22 22 22 22 22 22 21 19 19 18 18 18 17 17 18 19 20 19 18 17 17 17 17 17
32 30 29 27 24 20 17 16 17 19 19 20 21 22 22 21 20 20 21 22 23 22 21 20 21 22 20 19 18 16 15 14 13 18 19 17 17 16 16 16 16 16 16
32 30 28 26 24 21 18 16 16 18 20 20 21 22 21 21 21 20 22 23 23 20 19 22 22 20 20 18 18 16 15 13 12 16 18 17 16 15 14 14 14 16 15
32 30 28 25 23 21 19 17 16 17 19 20 21 21 21 21 21 21 23 23 21 19 20 20 20 20 19 19 19 18 16 14 12 14 16 16 15 13 13 14 13 14 13
31 30 28 26 23 21 19 17 16 16 18 19 20 21 21 21 21 21 23 23 21 19 18 19 18 19 20 21 20 18 16 14 12 12 14 15 14 12 12 13 12 12 12
30 29 29 27 24 22 20 18 16 16 17 19 20 21 21 21 21 21 22 23 21 18 16 18 18 18 20 20 19 18 16 14 13 13 12 13 12 11 11 11 11 12 12
30 29 28 27 25 23 22 21 19 17 17 19 20 21 22 22 23 22 22 23 22 18 15 16 16 16 17 16 14 15 15 14 12 12 12 12 11 10 10 10 10 10 11
30 31 30 29 27 26 24 23 22 20 19 19 21 23 23 23 23 24 23 23 23 20 16 14 14 15 15 14 12 12 12 12 12 11 11 11 10 8 9 9 9 9 10
28 31 32 30 29 29 27 26 25 23 22 21 22 24 25 24 25 25 26 27 25 23 20 17 14 14 13 12 12 12 12 11 10 10 9 9 8 7 7 7 7 7 9
24 29 31 32 32 31 30 29 27 27 26 25 24 24 26 27 27 28 27 27 27 25 22 19 16 13 12 11 10 11 10 9 8 8 7 7 7 6 5 6 6 6 8
22 23 27 31 35 34 33 32 31 30 29 28 26 26 27 28 29 29 28 26 25 26 24 22 19 17 14 12 10 9 8 8 5 6 4 6 5 5 5 4 4 6 8
20 23 24 28 33 37 37 35 34 32 31 31 29 28 28 28 29 29 28 27 26 25 24 24 21 20 18 15 12 10 8 8 6 6 3 4 5 4 4 3 3 7 8
10 18 25 26 29 34 36 38 38 36 34 33 32 30 30 29 29 28 27 27 27 26 25 24 25 25 23 20 17 13 11 9 9 8 4 3 1 5 6 4 3 6 7
10 14 22 24 34 34 34 38 41 40 39 36 35 34 33 31 30 30 30 29 27 27 27 26 26 27 27 24 20 16 15 12 11 11 8 7 3 4 7 7 6 6 7
14 11 15 19 25 34 38 37 37 40 43 41 39 38 36 35 33 32 32 30 29 29 29 28 27 28 29 28 23 18 18 15 14 14 12 11 8 7 7 7 9 8 8
13 11 8 13 19 24 33 38 38 38 41 43 43 42 40 38 36 35 34 32 31 32 32 31 29 28 28 28 26 21 20 18 18 18 16 16 15 11 11 11 11 10 10
12 11 9 7 15 21 26 33 37 40 38 40 43 44 43 41 39 38 37 35 34 35 34 32 31 31 30 29 27 26 23 23 23 22 20 20 20 17 16 15 15 14 14
16 15 12 8 10 18 24 30 34 38 36 35 41 45 45 43 43 42 41 40 38 37 36 35 35 35 33 33 32 28 26 27 29 28 28 24 25 24 22 20 19 19 19
15 16 16 14 8 11 18 28 29 33 37 37 38 43 47 46 47 47 46 44 41 40 40 38 38 39 38 36 37 25 13 17 28 32 32 31 29 30 28 27 25 24 23
18 14 15 13 12 9 12 15 28 32 34 39 40 39 42 45 48 49 49 49 45 43 43 41 40 39 41 41 41 40 29 15 19 15 34 35 33 35 33 32 30 29 27
24 16 15 15 11 10 9 10 17 23 31 33 36 37 36 39 41 45 49 52 50 48 47 44 42 43 42 43 46 45 45 33 24 26 25 28 37 37 36 35 33 33 31
28 23 18 18 17 11 9 7 11 21 27 27 30 34 36 40 40 40 46 51 53 51 50 49 47 45 44 45 47 48 48 51 44 37 32 29 29 32 35 36 36 35 34
Wind_Direction
172 164 158 153 152 147 142 138 138 143 148 148 142 134 130 129 128 130 132 131 129 123 120 115 118 118 113 108 108 110 110 110 108 107 105 104 100 100 99 98 97 95 94
164 163 160 155 152 148 143 138 138 142 143 140 137 135 132 129 128 130 129 129 127 121 120 118 117 116 115 113 111 110 108 110 109 107 103 98 101 100 98 96 97 96 92
164 163 161 157 154 153 146 140 140 141 141 139 137 135 133 131 132 132 131 129 126 122 118 118 118 115 114 113 111 109 110 111 109 107 105 99 96 100 100 99 98 97 96
164 164 162 159 157 154 148 144 144 145 142 139 138 136 135 135 134 132 130 129 125 121 121 120 115 113 113 113 113 111 111 109 110 109 104 104 103 102 102 104 102 97 96
166 165 163 162 162 158 153 148 147 145 143 141 139 139 139 136 134 133 133 131 127 125 123 117 113 111 110 112 111 111 109 110 116 115 112 111 110 110 110 109 105 102 99
168 167 164 164 165 163 158 152 149 148 146 144 144 143 141 138 135 135 138 135 131 127 121 116 115 112 109 108 109 109 109 112 121 114 111 110 109 109 109 109 107 102 98
170 170 168 167 169 169 163 157 153 154 150 150 148 146 144 141 138 139 141 138 134 130 122 116 111 109 105 107 107 108 105 104 109 113 113 112 109 111 110 111 109 106 104
173 173 173 171 173 174 170 164 160 158 156 153 153 151 148 145 143 143 143 142 136 132 123 116 112 107 101 101 104 102 101 101 104 111 113 111 110 110 112 111 109 105 102
180 177 176 176 177 179 176 171 167 163 162 158 157 155 151 150 148 146 147 145 141 138 127 120 116 109 103 100 98 96 98 97 100 103 109 110 111 113 112 109 106 104 99
184 184 181 181 183 182 181 179 175 170 168 165 163 160 158 155 153 150 150 151 148 146 136 125 121 115 110 103 97 92 90 95 99 99 102 106 111 111 109 107 107 103 102
189 190 190 188 188 189 187 185 183 179 176 174 170 168 166 162 159 156 154 154 155 156 151 137 130 126 125 112 103 96 91 88 96 96 99 103 107 111 111 111 106 104 101
196 196 197 197 196 195 196 193 191 188 184 185 181 178 174 169 165 164 161 161 162 166 166 160 147 141 137 126 117 118 101 89 86 96 101 104 108 112 114 113 110 104 100
207 206 205 206 203 204 204 200 198 197 195 192 193 187 182 177 172 173 171 170 172 176 178 180 174 159 149 138 125 130 117 103 91 92 103 110 116 119 117 113 106 102 108
228 215 216 213 213 213 211 210 207 204 203 201 199 196 191 187 183 180 179 178 179 182 187 190 190 184 172 158 145 140 136 118 108 97 97 118 124 126 128 122 119 118 123
257 244 236 225 221 219 217 217 215 214 211 209 205 203 202 197 194 188 184 185 184 186 188 195 199 197 195 188 175 166 161 148 136 128 93 133 138 145 148 142 136 138 132
306 274 253 242 233 229 223 222 222 222 220 217 213 209 209 208 205 201 194 190 191 190 190 194 202 203 204 207 203 196 186 183 182 172 138 132 160 174 183 182 162 156 149
275 274 260 258 247 239 237 230 226 227 228 227 221 217 215 215 213 212 208 202 198 196 196 195 201 204 205 211 216 214 204 202 208 191 191 189 182 203 206 213 189 173 172
343 266 254 264 251 243 238 240 232 230 230 230 229 224 221 219 219 218 216 213 208 205 204 204 204 208 211 214 221 222 214 213 209 206 224 221 246 222 216 219 223 207 204
348 327 251 255 259 252 244 242 243 238 234 231 228 230 228 224 222 222 222 220 217 214 213 212 211 212 214 217 219 225 222 222 220 220 227 225 233 236 239 235 233 227 226
346 347 295 225 257 272 257 245 248 245 245 236 231 229 230 230 227 226 225 223 222 222 220 218 217 217 219 218 223 230 226 224 225 228 235 233 235 244 245 242 240 237 235
324 339 344 260 220 230 249 247 242 244 248 243 236 233 231 231 231 231 230 227 225 227 226 224 223 222 220 218 220 227 228 228 228 227 228 233 234 243 244 245 245 244 247
342 335 342 339 256 228 229 236 248 251 253 251 241 235 235 235 235 234 235 231 228 228 228 227 227 225 223 220 220 223 229 233 233 232 233 233 235 240 242 244 247 248 251
358 338 338 345 339 277 255 237 241 248 256 256 248 242 240 239 237 237 236 236 233 232 232 230 229 229 226 222 222 218 213 223 229 233 234 235 234 238 241 243 247 248 251
360 350 339 337 345 326 298 258 234 246 247 255 258 254 248 246 243 240 241 241 237 235 236 233 230 231 229 226 222 223 222 230 216 230 235 234 237 239 242 245 248 251 253
357 353 342 343 337 331 330 295 241 242 245 258 265 263 259 256 253 249 245 245 243 240 239 237 234 231 230 229 225 224 223 228 232 236 239 240 237 240 243 245 250 254 257
5 359 352 346 342 345 322 316 268 254 250 245 249 262 267 264 261 257 252 247 246 246 244 242 238 237 235 231 232 230 229 226 230 234 239 245 250 250 248 249 251 254 257